Weather History for Scappoose, OR

Change the Weather History Date:

Tuesday, January 14, 2014

  Actual Average Record
Temperature  
Mean Temperature 42 °F -  
Max Temperature 47 °F - 57 °F (2011)
Min Temperature 37 °F - 18 °F (2007)
Degree Days  
Heating Degree Days 23    
Month to date heating degree days 323  
Since 1 July heating degree days 2459  
Cooling Degree Days 0    
Month to date cooling degree days 0  
Year to date cooling degree days 0  
Moisture  
Dew Point 41 °F    
Average Humidity 93    
Maximum Humidity 100    
Minimum Humidity 86    
Precipitation  
Precipitation 0.00 in - 0.29 in (2000)
Month to date precipitation 2.04  
Year to date precipitation 2.04  
Sea Level Pressure  
Sea Level Pressure 30.64 in    
Wind  
Wind Speed 2 mph (NW)    
Max Wind Speed 6 mph    
Max Gust Speed 8 mph    
Visibility 4 miles    
Events Fog    
T = Trace of Precipitation, MM = Missing Value Source: NWS Daily Summary

Daily Weather History Graph

Daily Weather History Graph

Search for Another Location

Airport:

Trip Planner

Search our weather history database for the weather conditions in past years. The results will help you decide how hot, cold, wet, or windy it might be!

Date:

Astronomy

Jan. 14, 2014 Rise Set
Actual Time 7:49 AM PST 4:52 PM PST
Civil Twilight 7:15 AM PST 5:25 PM PST
Nautical Twilight 6:38 AM PST 6:02 PM PST
Astronomical Twilight 6:03 AM PST 6:38 PM PST
Moon 4:04 PM PST (1/14) 6:26 AM PST (1/14)
Length of Visible Light 10h 10m
Length of Day
9h 03m
Waxing Gibbous, 98% of the Moon is Illuminated
Jan 14
Waxing Gibbous
Jan 15
Full
Jan 23
Last Quarter
Jan 30
New
Feb 6
First Quarter

Hourly Weather History & Observations

Time (PST) Temp. Windchill Dew Point Humidity Pressure Visibility Wind Dir Wind Speed Gust Speed Precip Events Conditions
12:53 AM 46.0 °F 44.8 °F 44.1 °F 93% 30.67 in 10.0 mi NW 3.5 mph - N/A   Overcast
1:53 AM 45.0 °F 42.6 °F 43.0 °F 93% 30.65 in 10.0 mi West 4.6 mph - N/A   Scattered Clouds
2:47 AM 41.0 °F - 41.0 °F 100% 30.67 in 1.8 mi Calm Calm - N/A   Partly Cloudy
2:53 AM 42.1 °F 40.2 °F 41.0 °F 96% 30.67 in 1.5 mi West 3.5 mph - N/A   Partly Cloudy
2:56 AM 41.0 °F 39.0 °F 41.0 °F 100% 30.67 in 3.0 mi West 3.5 mph - N/A   Clear
3:07 AM 42.1 °F - 41.0 °F 96% 30.67 in 2.0 mi Calm Calm - N/A   Clear
3:17 AM 41.0 °F - 41.0 °F 100% 30.67 in 7.0 mi Calm Calm - N/A   Clear
3:34 AM 41.0 °F - 39.9 °F 96% 30.67 in 1.8 mi Calm Calm - N/A   Clear
3:50 AM 41.0 °F - 41.0 °F 100% 30.67 in 3.0 mi Calm Calm - N/A   Partly Cloudy
3:53 AM 41.0 °F - 41.0 °F 100% 30.67 in 3.0 mi Calm Calm - N/A   Scattered Clouds
3:58 AM 41.0 °F - 39.9 °F 96% 30.67 in 2.5 mi Calm Calm - N/A   Mostly Cloudy
4:05 AM 42.1 °F 40.2 °F 41.0 °F 96% 30.67 in 6.0 mi WNW 3.5 mph - N/A   Mostly Cloudy
4:36 AM 41.0 °F 39.0 °F 39.9 °F 96% 30.66 in 10.0 mi West 3.5 mph - N/A   Overcast
4:53 AM 39.9 °F - 39.0 °F 97% 30.66 in 8.0 mi Calm Calm - N/A   Mostly Cloudy
4:59 AM 41.0 °F 39.0 °F 39.9 °F 96% 30.66 in 9.0 mi WNW 3.5 mph - N/A   Scattered Clouds
5:46 AM 39.9 °F - 39.0 °F 97% 30.65 in 1.8 mi Calm Calm - N/A   Partly Cloudy
5:53 AM 39.9 °F - 39.0 °F 97% 30.65 in 0.8 mi Calm Calm - N/A   Mist
6:21 AM 39.0 °F - 39.0 °F 100% 30.65 in 1.2 mi Calm Calm - N/A   Scattered Clouds
6:26 AM 39.0 °F 36.8 °F 37.9 °F 96% 30.65 in 3.0 mi North 3.5 mph - N/A   Scattered Clouds
6:38 AM 37.9 °F - 37.9 °F 100% 30.65 in 1.8 mi Calm Calm - N/A   Partly Cloudy
6:49 AM 37.4 °F - 37.4 °F 100% 30.65 in 0.8 mi Calm Calm - N/A   Mostly Cloudy
6:53 AM 37.0 °F - 37.0 °F 100% 30.66 in 0.8 mi Calm Calm - N/A   Mostly Cloudy
7:10 AM 37.9 °F - 37.9 °F 100% 30.66 in 0.8 mi Calm Calm - N/A   Overcast
7:29 AM 37.9 °F - 37.9 °F 100% 30.66 in 0.2 mi Calm Calm - N/A Fog Fog
7:53 AM 39.0 °F - 39.0 °F 100% 30.66 in 0.2 mi Calm Calm - N/A Fog Fog
8:51 AM 39.2 °F - 39.2 °F 100% 30.67 in 0.8 mi Calm Calm - N/A   Mist
8:53 AM 39.9 °F - 39.9 °F 100% 30.67 in 0.8 mi Calm Calm - N/A   Mist
9:15 AM 41.0 °F - 41.0 °F 100% 30.68 in 0.2 mi Calm Calm - N/A Fog Fog
9:53 AM 41.0 °F - 41.0 °F 100% 30.67 in 0.2 mi Calm Calm - N/A Fog Fog
10:20 AM 42.1 °F - 42.1 °F 100% 30.68 in 0.8 mi Calm Calm - N/A   Mist
10:26 AM 42.1 °F - 42.1 °F 100% 30.67 in 2.0 mi Calm Calm - N/A   Overcast
10:38 AM 43.0 °F - 43.0 °F 100% 30.67 in 5.0 mi Calm Calm - N/A   Overcast
10:53 AM 43.0 °F - 43.0 °F 100% 30.67 in 9.0 mi Calm Calm - N/A   Overcast
11:53 AM 44.1 °F - 43.0 °F 96% 30.65 in 8.0 mi Calm Calm - N/A   Overcast
12:53 PM 45.0 °F 42.6 °F 43.0 °F 93% 30.62 in 6.0 mi NE 4.6 mph - N/A   Overcast
1:42 PM 46.0 °F - 44.1 °F 93% 30.61 in 10.0 mi Calm Calm - N/A   Overcast
1:53 PM 46.0 °F - 44.1 °F 93% 30.61 in 10.0 mi Calm Calm - N/A   Overcast
2:53 PM 46.0 °F - 43.0 °F 89% 30.62 in 10.0 mi Calm Calm - N/A   Overcast
3:53 PM 45.0 °F - 43.0 °F 93% 30.63 in 10.0 mi Calm Calm - N/A   Overcast
4:53 PM 45.0 °F 43.5 °F 43.0 °F 93% 30.62 in 10.0 mi North 3.5 mph - N/A   Overcast
5:25 PM 45.0 °F 43.5 °F 43.0 °F 93% 30.61 in 9.0 mi NNE 3.5 mph - N/A   Overcast
5:53 PM 45.0 °F 42.6 °F 43.0 °F 93% 30.61 in 9.0 mi North 4.6 mph - N/A   Overcast
6:53 PM 45.0 °F - 43.0 °F 93% 30.61 in 9.0 mi Calm Calm - N/A   Overcast
7:53 PM 44.1 °F 42.5 °F 43.0 °F 96% 30.61 in 8.0 mi NNW 3.5 mph - N/A   Overcast
8:53 PM 43.0 °F - 42.1 °F 97% 30.61 in 7.0 mi Calm Calm - N/A   Overcast
9:19 PM 43.0 °F - 42.1 °F 97% 30.60 in 1.8 mi Calm Calm - N/A   Overcast
9:32 PM 42.1 °F - 42.1 °F 100% 30.60 in 0.5 mi Calm Calm - N/A Fog Fog
9:53 PM 42.1 °F - 42.1 °F 100% 30.60 in 0.8 mi Calm Calm - N/A   Mist
10:53 PM 42.1 °F 40.2 °F 42.1 °F 100% 30.59 in 0.5 mi NW 3.5 mph - N/A Fog Fog
11:41 PM 41.0 °F 37.1 °F 39.9 °F 96% 30.58 in 1.2 mi WNW 5.8 mph - N/A   Overcast
11:53 PM 39.9 °F 36.7 °F 39.9 °F 100% 30.58 in 1.5 mi West 4.6 mph - N/A   Overcast